Weather History for Drummond Island, MI

Change the Weather History Date:

Thursday, January 31, 2013

  Actual Average (KCIU) Record (KCIU)
Temperature  
Mean Temperature 8 °F -  
Max Temperature 12 °F 27 °F 37 °F (1983)
Min Temperature 3 °F 5 °F -15 °F (1980)
Degree Days  
Heating Degree Days 58    
Moisture  
Dew Point 2 °F    
Average Humidity 80    
Maximum Humidity 88    
Minimum Humidity 73    
Precipitation  
Precipitation 0.00 in - - ()
Sea Level Pressure  
Sea Level Pressure 29.47 in    
Wind  
Wind Speed 8 mph (NW)    
Max Wind Speed 13 mph    
Max Gust Speed 21 mph    
Visibility 8 miles    
Events Snow    
Averages and records for this station are not official NWS values.
T = Trace of Precipitation, MM = Missing Value Source: NWS Daily Summary

Daily Weather History Graph

Daily Weather History Graph

Search for Another Location

Airport:

Trip Planner

Search our weather history database for the weather conditions in past years. The results will help you decide how hot, cold, wet, or windy it might be!

Date:

Astronomy

Jan. 31, 2013 Rise Set
Actual Time 7:58 AM EST 5:39 PM EST
Civil Twilight 7:26 AM EST 6:11 PM EST
Nautical Twilight 6:50 AM EST 6:47 PM EST
Astronomical Twilight 6:15 AM EST 7:22 PM EST
Moon 11:00 PM EST (1/31) 9:39 AM EST (1/31)
Length of Visible Light 10h 45m
Length of Day
9h 41m
Waning Gibbous, 80% of the Moon is Illuminated
Jan 31
Waning Gibbous
Feb 3
Last Quarter
Feb 10
New
Feb 17
First Quarter
Feb 25
Full

Hourly Weather History & Observations

Time (EST) Temp. Windchill Dew Point Humidity Pressure Visibility Wind Dir Wind Speed Gust Speed Precip Events Conditions
12:16 AM 12.6 °F 1.1 °F 8.6 °F 84% 29.12 in - North 8.1 mph 18.4 mph N/A   Unknown
12:35 AM 12.6 °F 1.1 °F 8.6 °F 84% 29.13 in - NNW 8.1 mph - N/A   Unknown
12:55 AM 12.0 °F 2.7 °F 8.4 °F 85% 29.14 in - NNW 5.8 mph 16.1 mph N/A   Unknown
1:16 AM 11.3 °F 0.7 °F 8.4 °F 88% 29.16 in - NNW 6.9 mph - N/A   Overcast
1:35 AM 10.6 °F -2.2 °F 7.5 °F 87% 29.17 in - NNW 9.2 mph 17.3 mph N/A   Overcast
1:56 AM 10.4 °F -1.5 °F 7.5 °F 88% 29.17 in - NNW 8.1 mph - N/A   Overcast
2:15 AM 9.9 °F -2.2 °F 6.6 °F 87% 29.18 in - NNW 8.1 mph - N/A   Unknown
2:36 AM 9.1 °F -5.6 °F 5.7 °F 86% 29.19 in - NNW 11.5 mph 17.3 mph N/A   Overcast
2:56 AM 8.2 °F -6.0 °F 4.5 °F 85% 29.20 in - NNW 10.4 mph 17.3 mph N/A   Overcast
3:15 AM 7.0 °F -5.7 °F 2.3 °F 81% 29.21 in - NNW 8.1 mph 18.4 mph N/A   Overcast
3:36 AM 6.6 °F -7.1 °F 2.8 °F 84% 29.22 in - NNW 9.2 mph 16.1 mph N/A   Unknown
3:55 AM 6.1 °F -8.7 °F 1.6 °F 82% 29.23 in - NW 10.4 mph 16.1 mph N/A   Overcast
4:16 AM 5.5 °F -10.2 °F 1.0 °F 82% 29.24 in - NNW 11.5 mph 19.6 mph N/A   Unknown
4:36 AM 4.6 °F -7.4 °F -0.4 °F 80% 29.25 in - NW 6.9 mph 19.6 mph N/A   Overcast
4:55 AM 4.1 °F -8.0 °F -1.3 °F 78% 29.27 in - NNW 6.9 mph 19.6 mph N/A   Overcast
5:16 AM 4.1 °F -9.2 °F -1.5 °F 78% 29.29 in - NNW 8.1 mph 18.4 mph N/A   Overcast
5:36 AM 3.6 °F -10.9 °F -2.4 °F 76% 29.30 in - NW 9.2 mph 17.3 mph N/A   Overcast
5:55 AM 3.6 °F -13.4 °F -1.8 °F 78% 29.31 in - NW 12.7 mph 16.1 mph N/A   Overcast
6:16 AM 3.2 °F -11.3 °F -2.4 °F 78% 29.32 in - NW 9.2 mph 17.3 mph N/A   Overcast
6:35 AM 3.2 °F -11.3 °F -3.1 °F 75% 29.33 in - NW 9.2 mph 20.7 mph N/A   Overcast
6:56 AM 3.2 °F -10.3 °F -3.5 °F 74% 29.35 in - NNW 8.1 mph 19.6 mph N/A   Overcast
7:16 AM 3.6 °F -8.7 °F -2.4 °F 76% 29.37 in - NW 6.9 mph 16.1 mph N/A   Overcast
7:35 AM 3.6 °F -7.3 °F -3.1 °F 74% 29.38 in - NNW 5.8 mph 17.3 mph N/A   Overcast
7:56 AM 3.2 °F -12.2 °F -3.3 °F 74% 29.39 in 10.0 mi NNW 10.4 mph - N/A   Overcast
8:16 AM 3.2 °F -7.8 °F -3.1 °F 75% 29.41 in 10.0 mi NW 5.8 mph - N/A   Overcast
8:35 AM 3.4 °F -4.0 °F -3.5 °F 73% 29.42 in 10.0 mi NW 3.5 mph - N/A   Overcast
8:56 AM 3.6 °F -10.9 °F -3.1 °F 74% 29.43 in 10.0 mi NW 9.2 mph 16.1 mph N/A   Overcast
9:15 AM 3.2 °F -12.2 °F -3.1 °F 75% 29.45 in 7.0 mi NW 10.4 mph - N/A   Overcast
9:36 AM 3.2 °F -10.3 °F -3.1 °F 75% 29.45 in 5.0 mi NW 8.1 mph 17.3 mph N/A Snow Light Snow
9:56 AM 3.7 °F -8.4 °F -2.4 °F 76% 29.46 in 3.0 mi NNW 6.9 mph - N/A Snow Light Snow
10:36 AM 4.3 °F -9.0 °F -2.2 °F 75% 29.48 in 5.0 mi NW 8.1 mph - N/A   Haze
10:56 AM 5.4 °F -7.6 °F -0.8 °F 76% 29.48 in 4.0 mi NNW 8.1 mph - N/A Snow Light Snow
11:15 AM 5.5 °F -7.4 °F -1.1 °F 74% 29.50 in 7.0 mi NW 8.1 mph - N/A   Overcast
11:36 AM 5.4 °F -5.2 °F -1.1 °F 75% 29.50 in 10.0 mi NW 5.8 mph - N/A   Overcast
12:00 PM 6.6 °F -3.7 °F 1.0 °F 78% 29.51 in 5.0 mi NW 5.8 mph - N/A   Haze
12:15 PM 7.2 °F -5.4 °F 1.6 °F 78% 29.51 in 5.0 mi West 8.1 mph - N/A   Haze
12:36 PM 7.7 °F -4.8 °F 2.3 °F 79% 29.51 in 7.0 mi WNW 8.1 mph - N/A   Overcast
12:55 PM 8.1 °F -3.2 °F 3.0 °F 80% 29.52 in 4.0 mi WNW 6.9 mph - N/A   Haze
1:16 PM 9.3 °F -2.8 °F 4.1 °F 79% 29.52 in 7.0 mi NW 8.1 mph - N/A   Overcast
1:35 PM 9.9 °F -4.0 °F 4.1 °F 78% 29.53 in 5.0 mi NW 10.4 mph 17.3 mph N/A   Haze
1:56 PM 11.5 °F -1.9 °F 5.9 °F 78% 29.53 in 4.0 mi West 10.4 mph 17.3 mph N/A   Haze
2:16 PM 11.7 °F -0.9 °F 6.1 °F 78% 29.54 in 7.0 mi WNW 9.2 mph - N/A   Overcast
2:35 PM 12.2 °F 0.7 °F 6.4 °F 78% 29.55 in 7.0 mi NW 8.1 mph - N/A   Overcast
2:55 PM 12.2 °F -1.0 °F 7.3 °F 81% 29.55 in 4.0 mi NNW 10.4 mph 16.1 mph N/A   Haze
3:16 PM 12.6 °F 1.1 °F 7.2 °F 79% 29.56 in 4.0 mi NW 8.1 mph 16.1 mph N/A   Haze
3:35 PM 12.2 °F -1.0 °F 7.2 °F 80% 29.57 in 5.0 mi NW 10.4 mph 17.3 mph N/A   Haze
3:56 PM 12.0 °F 4.1 °F 6.8 °F 80% 29.58 in 10.0 mi NW 4.6 mph - N/A   Overcast
4:15 PM 11.7 °F 2.3 °F 6.6 °F 80% 29.59 in 7.0 mi NNW 5.8 mph - N/A   Overcast
4:36 PM 11.1 °F 0.4 °F 6.4 °F 81% 29.61 in 7.0 mi NNW 6.9 mph - N/A   Overcast
4:55 PM 10.9 °F -1.8 °F 5.7 °F 79% 29.61 in 10.0 mi NW 9.2 mph 18.4 mph N/A   Overcast
5:16 PM 10.4 °F -0.4 °F 5.9 °F 82% 29.63 in 10.0 mi NW 6.9 mph - N/A   Overcast
5:36 PM 10.0 °F -1.9 °F 5.2 °F 81% 29.64 in 10.0 mi NNW 8.1 mph - N/A   Overcast
5:55 PM 9.3 °F 1.0 °F 4.1 °F 79% 29.65 in 10.0 mi NW 4.6 mph - N/A   Overcast
6:16 PM 9.1 °F 0.8 °F 4.5 °F 81% 29.66 in 10.0 mi NW 4.6 mph - N/A   Overcast
6:36 PM 9.0 °F -0.9 °F 4.8 °F 83% 29.67 in 10.0 mi NNW 5.8 mph - N/A   Overcast
6:55 PM 8.6 °F -2.6 °F 3.9 °F 81% 29.68 in 10.0 mi NW 6.9 mph - N/A   Overcast
7:16 PM 8.4 °F -1.6 °F 3.6 °F 81% 29.69 in 10.0 mi NNW 5.8 mph - N/A   Overcast
7:36 PM 7.7 °F -4.8 °F 2.7 °F 80% 29.69 in 10.0 mi NNW 8.1 mph - N/A   Overcast
8:16 PM 7.5 °F -1.1 °F 2.5 °F 80% 29.71 in 10.0 mi NNW 4.6 mph - N/A   Overcast
8:36 PM 7.3 °F -1.3 °F 2.3 °F 80% 29.72 in 10.0 mi NNW 4.6 mph - N/A   Overcast
8:55 PM 7.2 °F -3.0 °F 2.1 °F 80% 29.73 in 10.0 mi NNW 5.8 mph - N/A   Overcast
9:16 PM 7.0 °F -1.7 °F 2.3 °F 81% 29.73 in 7.0 mi NNW 4.6 mph - N/A   Overcast
9:35 PM 6.8 °F -2.0 °F 2.5 °F 82% 29.74 in 7.0 mi NW 4.6 mph - N/A   Overcast
10:16 PM 6.3 °F -2.6 °F 2.3 °F 84% 29.75 in 7.0 mi NNW 4.6 mph - N/A   Overcast
10:35 PM 5.9 °F -4.5 °F 1.9 °F 84% 29.75 in 10.0 mi NNW 5.8 mph - N/A   Mostly Cloudy
11:16 PM 5.4 °F -6.5 °F 0.5 °F 80% 29.77 in 10.0 mi North 6.9 mph - N/A   Overcast
11:35 PM 5.5 °F -3.4 °F 0.7 °F 80% 29.77 in 10.0 mi North 4.6 mph - N/A   Overcast